Location: Peebles
(55.6412°N, 3.1714°W)
Time: 18:41:41
(UTC+01:00)

Cosmos 1934 Rocket - Pass Details

Date: 27 January 2022
Orbit: 938 x 999 km, 83.0° (Epoch: 25 May)

Event Time Altitude Azimuth Distance (km) Brightness Sun altitude
Rises 17:50:11 0° 348° (NNW) 3,656 6.9 -10.2°
Reaches altitude 10° 17:52:44 10° 352° (N) 2,697 6.2 -10.6°
Maximum altitude 17:58:52 67° 75° (ENE) 1,024 3.9 -11.4°
Drops below altitude 10° 18:04:54 10° 158° (SSE) 2,652 6.2 -12.2°
Sets 18:07:23 0° 161° (SSE) 3,590 6.9 -12.5°
